Location: El Álamo
(40.2307°N, 3.9945°W)
Time: 02:12:19
(UTC+00:00)

Cosmos 2082 Rocket - Pass Details

Date: 19 May 2025
Orbit: 831 x 853 km, 71.0° (Epoch: 24 June)

Event Time Altitude Azimuth Distance (km) Brightness Sun altitude
Exits shadow 21:41:41 34° 109° (ESE) 1,342 2.8 -20.3°
Maximum altitude 21:41:52 34° 104° (ESE) 1,340 2.8 -20.3°
Drops below altitude 10° 21:46:51 10° 41° (NE) 2,448 4.7 -20.9°
Sets 21:49:29 0° 33° (NNE) 3,389 5.6 -21.2°
